Regional Weather Roundup
Issued by NWS

Home | Current Version | Previous Version | Text Only | Print | Product List | Glossary On
Versions: 1 2 3 4 5 6 7 8 9 10 11 12 13 14 15 16 17 18 19 20 21 22 23 24 25 26 27 28 29 30 31 32 33 34 35 36 37 38 39 40 41 42 43 44 45 46 47 48 49 50
000
ASUS43 KDTX 231710
RWRMI
MICHIGAN HOURLY REGIONAL WEATHER ROUNDUP
NATIONAL WEATHER SERVICE DETROIT/PONTIAC MI
100 PM EDT TUE SEP 23 2014

NOTE: "FAIR" INDICATES FEW OR NO CLOUDS BELOW 12,000 FEET WITH NO
SIGNIFICANT WEATHER AND/OR OBSTRUCTION TO VISIBILITY.

MIZ047>049-052>055-059>063-066>070-074>076-081>083-231800-
SOUTHEAST LOWER MICHIGAN

CITY           SKY/WX    TMP DP  RH WIND       PRES   REMARKS
ADRIAN         SUNNY     66  47  50 VRB3      30.36F
ALMA           SUNNY     69  54  58 W7        30.33S
ANN ARBOR      SUNNY     66  47  50 S5        30.34F
BAD AXE        SUNNY     67  55  65 W10       30.32S
DETROIT CITY   SUNNY     67  47  48 W6        30.34F
DETROIT        SUNNY     66  49  54 S8        30.35F
FLINT          SUNNY     69  52  54 W9        30.33F
GROSSE ILE     SUNNY     64  54  68 S8        30.34F
HILLSDALE      SUNNY     66  48  51 CALM      30.35F
HOWELL         SUNNY     66  50  56 W6        30.34F

CITY           SKY/WX    TMP DP  RH WIND       PRES   REMARKS
JACKSON        SUNNY     67  49  52 VRB3      30.35F
LAMBERTVILLE   SUNNY     66  45  45 SW3       30.37S
LANSING        SUNNY     68  50  52 W8        30.34F
LAPEER         NOT AVBL
MASON          SUNNY     66  51  58 SW5       30.34S
MONROE         SUNNY     66  46  48 CALM      30.34F
MT. CLEMENS    SUNNY     68  47  47 VRB3      30.32S
PONTIAC        SUNNY     66  49  54 SW7       30.34S
PORT HOPE        N/A     67  53  61 SW8       30.29R
PORT HURON     SUNNY     66  52  59 SW7       30.33S
TRI CITIES     SUNNY     68  54  60 SW8       30.32S
YPSILANTI      SUNNY     69  49  48 SW8       30.35F
$$
MIZ043>046-050>051-056>058-064>065-071>073-077>080-231800-
SOUTHWEST LOWER MICHIGAN

CITY           SKY/WX    TMP DP  RH WIND       PRES   REMARKS
BATTLE CREEK   SUNNY     67  50  54 W5        30.35F
BENTON HARBOR  SUNNY     65  51  60 W9        30.35S
BIG RAPIDS     MOSUNNY   69  58  67 W8        30.32S
COLDWATER      SUNNY     67  47  48 CALM      30.35F
HOLLAND        SUNNY     68  54  60 SW9       30.35S
GRAND RAPIDS   MOSUNNY   70  55  59 VRB5      30.34S
KALAMAZOO      SUNNY     69  49  48 VRB3      30.35F
MARSHALL       SUNNY     67  49  53 W5        30.34F
MUSKEGON       SUNNY     66  54  65 SW8       30.34S
$$
MIZ016>042-231800-
NORTHERN LOWER MICHIGAN

CITY           SKY/WX    TMP DP  RH WIND       PRES   REMARKS
ALPENA         SUNNY     72  55  55 VRB7      30.25S
BEAVER ISLAND  SUNNY     65  56  73 SW14      30.27S
BELLAIRE       SUNNY     68  54  60 W8        30.28S
CADILLAC       SUNNY     68  54  60 W12       30.30S
CHARLEVOIX     SUNNY     66  58  74 SW12      30.30S
FRANKFORT      SUNNY     65  54  68 SW9       30.30S
GAYLORD        SUNNY     68  52  56 W10       30.28S
GRAYLING       SUNNY     72  54  54 W9        30.29S
HARBOR SPRINGS SUNNY     66  55  66 W9G18     30.27S
HOUGHTON LAKE  SUNNY     67  54  63 W9        30.30F
MANISTEE       SUNNY     66  52  59 W9        30.32S
OSCODA         SUNNY     71  53  53 SW7G16    30.26S
PELLSTON       SUNNY     67  56  67 SW13      30.26S
TRAVERSE CITY  SUNNY     70  54  56 SW8G17    30.27S
$$
MIZ007>008-015-231800-
EASTERN UPPER MICHIGAN

CITY           SKY/WX    TMP DP  RH WIND       PRES   REMARKS
KINROSS        SUNNY     66  55  68 W3        30.25R
MACKINAC ISLAN SUNNY     63  56  79 W15G21    30.26R
NEWBERRY       SUNNY     69  55  60 W3        30.24S
S. S. MARIE    SUNNY     65  52  62 W8        30.24R
$$
MIZ004>006-011>014-085-231800-
CENTRAL UPPER MICHIGAN

CITY           SKY/WX    TMP DP  RH WIND       PRES   REMARKS
MANISTIQUE     SUNNY     65  56  71 S6        30.25S
ESCANABA       SUNNY     68  55  64 SE8       30.24F
MENOMINEE      SUNNY     70  54  56 SW6       30.27R
SAWYER-GWINN   SUNNY     72  50  46 S3        30.24F
$$
MIZ001>003-009>011-084-231800-
WESTERN UPPER MICHIGAN

CITY           SKY/WX    TMP DP  RH WIND       PRES   REMARKS
IRON MOUNTAIN  SUNNY     72  52  49 W5        30.25S
HOUGHTON       SUNNY     68  51  54 W9        30.23R
COPPER HARBOR    N/A     59  51  75 N16       30.21S
IRONWOOD       SUNNY     70  52  52 S9        30.22S
$$

ABBREVIATIONS USED IN REMARKS
   TC - TEMPERATURE IN CELSIUS
  WCI - WIND CHILL INDEX
   HX - HEAT INDEX
  VSB - VISIBILITY




USA.gov is the U.S. government's official web portal to all federal, state and local government web resources and services.